Regional Weather Roundup
Issued by NWS

Current Version | Previous Version | Text Only | Print | Product List | Glossary On
Versions: 1 2 3 4 5 6 7 8 9 10 11 12 13 14 15 16 17 18 19 20 21 22 23 24 25 26 27 28 29 30 31 32 33 34 35 36 37 38 39 40 41 42 43 44 45 46 47 48 49 50
000
ASCA42 TJSJ 211710
RWRPR
PUERTO RICO/U.S. VIRGIN ISLANDS HOURLY WEATHER ROUNDUP
NATIONAL WEATHER SERVICE SAN JUAN PR
100 PM AST SAT SEP 21 2019

PRZ001>002-007>008-010-211800-
PUERTO RICO

CITY           SKY/WX    TMP DP  RH WIND       PRES   REMARKS
SAN JUAN LMM   PTSUNNY   95  72  46 S9G20     29.91F HX 103
AGUADILLA      CLOUDY    86  73  66 W8        29.93F HX  93
CEIBA          MOSUNNY   90  79  70 S12       29.94F HX 105
$$

VIZ001>002-211800-
U.S. VIRGIN ISLANDS

CITY           SKY/WX    TMP DP  RH WIND       PRES   REMARKS
CHARLOTTE AMA  MOSUNNY   88  75  66 SE10      29.92F HX  97
CHRISTIANSTED  MOSUNNY   88  77  70 VRB6      29.93F HX 100
$$

HOURLY WEATHER ROUNDUP FOR THE NEWS MEDIA

CITY           SKY/WX    TMP DP  RH WIND       PRES   REMARKS
ORLANDO        PTSUNNY   85  62  46 E16       30.17F
NEW YORK       FAIR      80  58  46 SW9       30.21F
NEWARK         FAIR      81  50  33 CALM      30.20F
CHICAGO        CLOUDY    77  67  71 SW17G29   30.07S
HARTFORD       FAIR      81  59  47 VRB5      30.17F
BOSTON         FAIR      82  54  37 SE7       30.16F
DALLAS         PTSUNNY   87  70  56 S13G21    30.08F HX  92
PHILADELPHIA   FAIR      81  51  35 S10       30.21F
LOS ANGELES    SUNNY     75  61  61 CALM      29.92R
WASHINGTON DC  FAIR      85  57  38 SW7       30.22F


USA.gov is the U.S. government's official web portal to all federal, state and local government web resources and services.